Time,TemperatureF,DewpointF,PressureIn,WindDirection,WindDirectionDegrees,WindSpeedMPH,WindSpeedGustMPH,Humidity,HourlyPrecipIn,Conditions,Clouds,dailyrainin,SoftwareType,DateUTC
2013-06-09 02:12:00,60.0,58.0,-100.00,NW,310,0.0,6.0,91,-99.99,,,-99.99,,2013-06-09 06:12:00,
2013-06-09 03:22:00,58.0,56.0,-100.00,ESE,120,1.0,-999.0,95,-99.99,,,-99.99,,2013-06-09 07:22:00,
2013-06-09 03:32:00,58.0,56.0,-100.00,East,95,0.0,-999.0,95,-99.99,,,-99.99,,2013-06-09 07:32:00,
2013-06-09 03:42:00,57.0,56.0,-100.00,SE,135,0.0,1.0,95,-99.99,,,-99.99,,2013-06-09 07:42:00,
2013-06-09 03:52:00,57.0,56.0,-100.00,East,100,0.0,-999.0,95,-99.99,,,-99.99,,2013-06-09 07:52:00,
2013-06-09 04:02:00,57.0,55.0,-100.00,SE,145,0.0,-999.0,95,-99.99,,,-99.99,,2013-06-09 08:02:00,
2013-06-09 04:12:00,57.0,56.0,-100.00,NE,45,0.0,-999.0,96,-99.99,,,-99.99,,2013-06-09 08:12:00,
2013-06-09 04:22:00,56.0,55.0,-100.00,SE,140,0.0,-999.0,96,-99.99,,,-99.99,,2013-06-09 08:22:00,
2013-06-09 04:32:00,56.0,55.0,-100.00,NW,305,1.0,-999.0,96,-99.99,,,-99.99,,2013-06-09 08:32:00,
2013-06-09 04:42:00,56.0,55.0,-100.00,WNW,290,1.0,2.0,96,-99.99,,,-99.99,,2013-06-09 08:42:00,
2013-06-09 04:53:00,56.0,54.0,-100.00,West,275,1.0,-999.0,96,-99.99,,,-99.99,,2013-06-09 08:53:00,
2013-06-09 05:02:00,56.0,54.0,-100.00,West,275,1.0,-999.0,96,-99.99,,,-99.99,,2013-06-09 09:02:00,
2013-06-09 06:03:00,55.0,54.0,-100.00,NE,35,1.0,3.0,96,-99.99,,,-99.99,,2013-06-09 10:03:00,
2013-06-09 06:13:00,55.0,54.0,-100.00,West,265,1.0,3.0,96,-99.99,,,-99.99,,2013-06-09 10:13:00,
2013-06-09 06:23:00,55.0,55.0,-100.00,West,280,2.0,3.0,97,-99.99,,,-99.99,,2013-06-09 10:23:00,
2013-06-09 06:32:00,56.0,55.0,-100.00,West,265,1.0,3.0,96,-99.99,,,-99.99,,2013-06-09 10:32:00,
2013-06-09 06:43:00,56.0,55.0,-100.00,North,5,1.0,3.0,96,-99.99,,,-99.99,,2013-06-09 10:43:00,
2013-06-09 06:52:00,58.0,56.0,-100.00,West,265,1.0,3.0,96,-99.99,,,-99.99,,2013-06-09 10:52:00,
2013-06-09 07:02:00,58.0,56.0,-100.00,West,265,1.0,3.0,96,-99.99,,,-99.99,,2013-06-09 11:02:00,
2013-06-09 07:12:00,58.0,57.0,-100.00,West,270,1.0,3.0,96,-99.99,,,-99.99,,2013-06-09 11:12:00,
2013-06-09 07:22:00,59.0,58.0,-100.00,West,270,1.0,3.0,96,-99.99,,,-99.99,,2013-06-09 11:22:00,
2013-06-09 07:32:00,61.0,59.0,-100.00,West,275,2.0,3.0,93,-99.99,,,-99.99,,2013-06-09 11:32:00,
2013-06-09 07:42:00,62.0,57.0,-100.00,WSW,255,3.0,3.0,85,-99.99,,,-99.99,,2013-06-09 11:42:00,
2013-06-09 07:52:00,63.0,57.0,-100.00,West,270,3.0,3.0,80,-99.99,,,-99.99,,2013-06-09 11:52:00,
2013-06-09 08:03:00,64.0,57.0,-100.00,West,270,3.0,3.0,76,-99.99,,,-99.99,,2013-06-09 12:03:00,
2013-06-09 08:12:00,65.0,56.0,-100.00,West,275,5.0,5.0,74,-99.99,,,-99.99,,2013-06-09 12:12:00,
2013-06-09 08:22:00,65.0,56.0,-100.00,West,275,3.0,10.0,72,-99.99,,,-99.99,,2013-06-09 12:22:00,
2013-06-09 08:32:00,66.0,56.0,-100.00,West,275,6.0,10.0,69,-99.99,,,-99.99,,2013-06-09 12:32:00,
2013-06-09 08:42:00,67.0,57.0,-100.00,WNW,295,3.0,10.0,70,-99.99,,,-99.99,,2013-06-09 12:42:00,
2013-06-09 08:52:00,68.0,57.0,-100.00,West,260,3.0,10.0,68,-99.99,,,-99.99,,2013-06-09 12:52:00,
2013-06-09 09:02:00,67.0,57.0,-100.00,WNW,285,5.0,10.0,68,-99.99,,,-99.99,,2013-06-09 13:02:00,
2013-06-09 09:12:00,68.0,57.0,-100.00,West,275,3.0,10.0,68,-99.99,,,-99.99,,2013-06-09 13:12:00,
2013-06-09 09:22:00,69.0,57.0,-100.00,WNW,285,3.0,12.0,67,-99.99,,,-99.99,,2013-06-09 13:22:00,
2013-06-09 09:32:00,69.0,56.0,-100.00,WNW,290,7.0,12.0,64,-99.99,,,-99.99,,2013-06-09 13:32:00,
2013-06-09 09:42:00,69.0,56.0,-100.00,West,270,6.0,12.0,62,-99.99,,,-99.99,,2013-06-09 13:42:00,
2013-06-09 09:52:00,70.0,56.0,-100.00,NW,310,6.0,12.0,62,-99.99,,,-99.99,,2013-06-09 13:52:00,
2013-06-09 10:02:00,70.0,55.0,-100.00,WNW,300,6.0,14.0,59,-99.99,,,-99.99,,2013-06-09 14:02:00,
2013-06-09 14:03:00,78.0,53.0,-100.00,WSW,250,6.0,15.0,42,-99.99,,,-99.99,,2013-06-09 18:03:00,
2013-06-09 14:12:00,78.0,53.0,-100.00,West,265,5.0,15.0,42,-99.99,,,-99.99,,2013-06-09 18:12:00,
2013-06-09 14:22:00,79.0,53.0,-100.00,West,260,9.0,15.0,40,-99.99,,,-99.99,,2013-06-09 18:22:00,
2013-06-09 14:33:00,78.0,54.0,-100.00,West,260,7.0,15.0,43,-99.99,,,-99.99,,2013-06-09 18:33:00,
2013-06-09 14:42:00,79.0,54.0,-100.00,WSW,255,9.0,15.0,42,-99.99,,,-99.99,,2013-06-09 18:42:00,
2013-06-09 14:52:00,78.0,53.0,-100.00,WSW,255,9.0,15.0,41,-99.99,,,-99.99,,2013-06-09 18:52:00,
2013-06-09 15:02:00,78.0,55.0,-100.00,WNW,290,3.0,10.0,44,-99.99,,,-99.99,,2013-06-09 19:02:00,
2013-06-09 15:12:00,80.0,56.0,-100.00,NW,315,5.0,14.0,44,-99.99,,,-99.99,,2013-06-09 19:12:00,
2013-06-09 15:22:00,78.0,54.0,-100.00,WSW,255,8.0,14.0,43,-99.99,,,-99.99,,2013-06-09 19:22:00,
2013-06-09 15:32:00,81.0,57.0,-100.00,West,275,3.0,10.0,44,-99.99,,,-99.99,,2013-06-09 19:32:00,
2013-06-09 15:42:00,81.0,57.0,-100.00,West,275,3.0,10.0,44,-99.99,,,-99.99,,2013-06-09 19:42:00,
2013-06-09 15:52:00,78.0,53.0,-100.00,NNW,345,7.0,10.0,41,-99.99,,,-99.99,,2013-06-09 19:52:00,
2013-06-09 16:03:00,79.0,55.0,-100.00,WNW,300,6.0,12.0,44,-99.99,,,-99.99,,2013-06-09 20:03:00,
2013-06-09 16:12:00,80.0,54.0,-100.00,West,260,10.0,20.0,41,-99.99,,,-99.99,,2013-06-09 20:12:00,
2013-06-09 16:22:00,80.0,55.0,-100.00,NW,315,5.0,20.0,43,-99.99,,,-99.99,,2013-06-09 20:22:00,
2013-06-09 16:32:00,79.0,56.0,-100.00,WNW,290,5.0,10.0,45,-99.99,,,-99.99,,2013-06-09 20:32:00,
2013-06-09 16:42:00,79.0,56.0,-100.00,WNW,290,5.0,10.0,45,-99.99,,,-99.99,,2013-06-09 20:42:00,
2013-06-09 16:52:00,79.0,55.0,-100.00,West,270,7.0,10.0,44,-99.99,,,-99.99,,2013-06-09 20:52:00,
2013-06-09 17:03:00,79.0,55.0,-100.00,West,270,7.0,10.0,44,-99.99,,,-99.99,,2013-06-09 21:03:00,
2013-06-09 17:12:00,80.0,54.0,-100.00,WNW,295,7.0,14.0,42,-99.99,,,-99.99,,2013-06-09 21:12:00,
2013-06-09 17:22:00,79.0,55.0,-100.00,WNW,295,7.0,14.0,43,-99.99,,,-99.99,,2013-06-09 21:22:00,
2013-06-09 17:33:00,80.0,54.0,-100.00,WSW,250,3.0,14.0,41,-99.99,,,-99.99,,2013-06-09 21:33:00,
2013-06-09 17:43:00,80.0,56.0,-100.00,West,265,6.0,12.0,44,-99.99,,,-99.99,,2013-06-09 21:43:00,
2013-06-09 17:53:00,80.0,56.0,-100.00,NNW,330,3.0,10.0,44,-99.99,,,-99.99,,2013-06-09 21:53:00,
2013-06-09 18:02:00,80.0,56.0,-100.00,NNW,330,3.0,10.0,44,-99.99,,,-99.99,,2013-06-09 22:02:00,
2013-06-09 18:13:00,79.0,56.0,-100.00,West,265,6.0,13.0,45,-99.99,,,-99.99,,2013-06-09 22:13:00,
2013-06-09 18:23:00,79.0,56.0,-100.00,NW,315,6.0,13.0,45,-99.99,,,-99.99,,2013-06-09 22:23:00,
2013-06-09 18:33:00,79.0,56.0,-100.00,West,270,5.0,13.0,45,-99.99,,,-99.99,,2013-06-09 22:33:00,
2013-06-09 18:42:00,79.0,56.0,-100.00,WNW,295,3.0,9.0,44,-99.99,,,-99.99,,2013-06-09 22:42:00,
2013-06-09 18:52:00,79.0,56.0,-100.00,WNW,295,2.0,10.0,45,-99.99,,,-99.99,,2013-06-09 22:52:00,
2013-06-09 19:02:00,79.0,54.0,-100.00,WNW,285,6.0,13.0,42,-99.99,,,-99.99,,2013-06-09 23:02:00,
2013-06-09 19:12:00,79.0,55.0,-100.00,WSW,255,3.0,9.0,43,-99.99,,,-99.99,,2013-06-09 23:12:00,
2013-06-09 19:22:00,78.0,55.0,-100.00,West,270,3.0,9.0,44,-99.99,,,-99.99,,2013-06-09 23:22:00,
2013-06-09 19:32:00,78.0,55.0,-100.00,West,265,3.0,9.0,45,-99.99,,,-99.99,,2013-06-09 23:32:00,
2013-06-09 19:43:00,78.0,55.0,-100.00,NW,315,3.0,7.0,45,-99.99,,,-99.99,,2013-06-09 23:43:00,
2013-06-09 19:52:00,76.0,56.0,-100.00,West,265,2.0,7.0,50,-99.99,,,-99.99,,2013-06-09 23:52:00,
2013-06-09 20:02:00,76.0,56.0,-100.00,West,265,2.0,7.0,50,-99.99,,,-99.99,,2013-06-10 00:02:00,
2013-06-09 20:13:00,75.0,56.0,-100.00,West,270,2.0,6.0,52,-99.99,,,-99.99,,2013-06-10 00:13:00,
2013-06-09 20:22:00,74.0,57.0,-100.00,West,265,2.0,7.0,54,-99.99,,,-99.99,,2013-06-10 00:22:00,
2013-06-09 20:42:00,73.0,57.0,-100.00,West,265,3.0,6.0,56,-99.99,,,-99.99,,2013-06-10 00:42:00,
2013-06-09 20:52:00,71.0,58.0,-100.00,SW,235,1.0,6.0,64,-99.99,,,-99.99,,2013-06-10 00:52:00,
2013-06-09 21:03:00,70.0,58.0,-100.00,West,270,2.0,7.0,64,-99.99,,,-99.99,,2013-06-10 01:03:00,
2013-06-09 21:12:00,69.0,59.0,-100.00,WNW,285,2.0,7.0,71,-99.99,,,-99.99,,2013-06-10 01:12:00,
2013-06-09 21:22:00,68.0,59.0,-100.00,West,260,1.0,5.0,72,-99.99,,,-99.99,,2013-06-10 01:22:00,
2013-06-09 21:32:00,67.0,58.0,-100.00,West,280,1.0,5.0,75,-99.99,,,-99.99,,2013-06-10 01:32:00,
2013-06-09 21:43:00,67.0,58.0,-100.00,West,280,1.0,5.0,75,-99.99,,,-99.99,,2013-06-10 01:43:00,
2013-06-09 21:52:00,66.0,58.0,-100.00,West,270,2.0,5.0,77,-99.99,,,-99.99,,2013-06-10 01:52:00,
2013-06-09 22:02:00,65.0,58.0,-100.00,West,265,2.0,5.0,78,-99.99,,,-99.99,,2013-06-10 02:02:00,
2013-06-09 22:12:00,65.0,58.0,-100.00,West,270,2.0,5.0,80,-99.99,,,-99.99,,2013-06-10 02:12:00,
2013-06-09 22:22:00,65.0,58.0,-100.00,West,265,2.0,6.0,80,-99.99,,,-99.99,,2013-06-10 02:22:00,
2013-06-09 22:32:00,63.0,58.0,-100.00,West,265,0.0,2.0,84,-99.99,,,-99.99,,2013-06-10 02:32:00,
2013-06-09 22:42:00,63.0,58.0,-100.00,West,265,0.0,2.0,84,-99.99,,,-99.99,,2013-06-10 02:42:00,
2013-06-09 22:52:00,62.0,58.0,-100.00,West,275,1.0,2.0,86,-99.99,,,-99.99,,2013-06-10 02:52:00,
2013-06-09 23:02:00,62.0,58.0,-100.00,West,275,1.0,2.0,86,-99.99,,,-99.99,,2013-06-10 03:02:00,
2013-06-09 23:12:00,62.0,58.0,-100.00,West,270,1.0,3.0,85,-99.99,,,-99.99,,2013-06-10 03:12:00,
2013-06-09 23:22:00,62.0,57.0,-100.00,ESE,115,1.0,5.0,85,-99.99,,,-99.99,,2013-06-10 03:22:00,
2013-06-09 23:33:00,61.0,58.0,-100.00,WSW,245,1.0,3.0,88,-99.99,,,-99.99,,2013-06-10 03:33:00,
2013-06-09 23:43:00,61.0,58.0,-100.00,WSW,255,1.0,3.0,88,-99.99,,,-99.99,,2013-06-10 03:43:00,
2013-06-09 23:53:00,61.0,57.0,-100.00,North,0,0.0,2.0,89,-99.99,,,-99.99,,2013-06-10 03:53:00,